Miramar MCAS, CA

9:44 AM PDT on August 23, 2017 (GMT -0700)
Miramar Marine Corps Air Station-Mitscher

Weather History for KNKX - January, 2013

Change the Weather History Date:

Wednesday, January 9, 2013

  Actual Average Record
Temperature  
Mean Temperature 54 °F -  
Max Temperature 64 °F 64 °F 80 °F (2007)
Min Temperature 45 °F 44 °F 39 °F (1997)
Degree Days  
Heating Degree Days 10    
Growing Degree Days 4 (Base 50)    
Moisture  
Dew Point 45 °F    
Average Humidity 71    
Maximum Humidity 89    
Minimum Humidity 43    
Precipitation  
Precipitation 0.00 in - - ()
Sea Level Pressure  
Sea Level Pressure 30.07 in    
Wind  
Wind Speed 5 mph (SSE)    
Max Wind Speed 9 mph    
Max Gust Speed -    
Visibility 9 miles    
Events      
Averages and records for this station are not official NWS values.
T = Trace of Precipitation, MM = Missing Value Source: NWS Daily Summary

Daily Weather History Graph

Daily Weather History Graph

Search for Another Location

Airport or City:

Trip Planner

Search our weather history database for the weather conditions in past years. The results will help you decide how hot, cold, wet, or windy it might be!

Date:

Astronomy

Jan. 09, 2013 Rise Set
Actual Time 6:51 AM PST 5:00 PM PST
Civil Twilight 6:25 AM PST 5:26 PM PST
Nautical Twilight 5:54 AM PST 5:57 PM PST
Astronomical Twilight 5:24 AM PST 6:27 PM PST
Moon 4:35 AM PST (1/9) 3:06 PM PST (1/9)
Length of Visible Light 11h 01m
Length of Day
10h 08m
Waning Crescent, 6% of the Moon is Illuminated
Jan 9
Waning Crescent
Jan 11
New
Jan 18
First Quarter
Jan 26
Full
Feb 3
Last Quarter

Hourly Weather History & Observations

Time (PST) Temp. Windchill Dew Point Humidity Pressure Visibility Wind Dir Wind Speed Gust Speed Precip Events Conditions
12:55 AM 46.0 °F 43.9 °F 39.9 °F 79% 30.08 in 10.0 mi NE 4.6 mph - N/A   Clear
1:55 AM 46.0 °F 43.9 °F 39.9 °F 79% 30.07 in 10.0 mi East 4.6 mph - N/A   Clear
2:55 AM 46.0 °F 43.1 °F 39.0 °F 76% 30.08 in 10.0 mi East 5.8 mph - N/A   Clear
3:55 AM 45.0 °F 41.2 °F 37.9 °F 76% 30.09 in 10.0 mi East 6.9 mph - N/A   Clear
4:55 AM 48.0 °F - 37.0 °F 66% 30.07 in 10.0 mi East 8.1 mph - N/A   Clear
5:55 AM 48.9 °F - 37.0 °F 64% 30.09 in 10.0 mi East 9.2 mph - N/A   Clear
6:55 AM 48.9 °F - 37.0 °F 64% 30.11 in 10.0 mi ENE 8.1 mph - N/A   Partly Cloudy
7:55 AM 53.1 °F - 37.9 °F 57% 30.12 in 10.0 mi East 4.6 mph - N/A   Scattered Clouds
8:55 AM 62.1 °F - 39.0 °F 43% 30.13 in 10.0 mi South 4.6 mph - N/A   Scattered Clouds
9:55 AM 63.0 °F - 42.1 °F 46% 30.12 in 10.0 mi SSE 5.8 mph - N/A   Mostly Cloudy
10:55 AM 64.0 °F - 46.9 °F 54% 30.11 in 10.0 mi SSW 8.1 mph - N/A   Mostly Cloudy
11:55 AM 64.0 °F - 50.0 °F 60% 30.09 in 10.0 mi SSW 5.8 mph - N/A   Mostly Cloudy
12:55 PM 64.0 °F - 51.1 °F 63% 30.08 in 10.0 mi SW 5.8 mph - N/A   Mostly Cloudy
1:55 PM 63.0 °F - 50.0 °F 63% 30.06 in 6.0 mi South 8.1 mph - N/A   Mostly Cloudy
2:55 PM 64.0 °F - 48.9 °F 58% 30.06 in 7.0 mi SSW 5.8 mph - N/A   Mostly Cloudy
3:55 PM 63.0 °F - 48.9 °F 60% 30.04 in 10.0 mi South 5.8 mph - N/A   Mostly Cloudy
4:55 PM 57.0 °F - 48.9 °F 74% 30.04 in 8.0 mi SSW 3.5 mph - N/A   Mostly Cloudy
5:55 PM 52.0 °F - 46.9 °F 83% 30.04 in 10.0 mi South 4.6 mph - N/A   Mostly Cloudy
6:30 PM 53.6 °F - 50.0 °F 88% 30.06 in 5.0 mi SW 3.5 mph - N/A   Overcast
6:55 PM 55.0 °F - 51.1 °F 86% 30.04 in 10.0 mi SW 5.8 mph - N/A   Overcast
7:55 PM 53.1 °F - 48.9 °F 86% 30.05 in 10.0 mi WSW 3.5 mph - N/A   Mostly Cloudy
8:55 PM 53.1 °F - 48.0 °F 83% 30.04 in 10.0 mi South 3.5 mph - N/A   Mostly Cloudy
9:55 PM 52.0 °F - 46.9 °F 83% 30.05 in 10.0 mi SE 3.5 mph - N/A   Mostly Cloudy
10:55 PM 52.0 °F - 48.0 °F 86% 30.04 in 10.0 mi SE 3.5 mph - N/A   Overcast
11:55 PM 51.1 °F - 48.0 °F 89% 30.00 in 5.0 mi Calm Calm - N/A   Overcast